Location: Unspecified
(48.8656°N, 0.0000°E)
Time: 22:57:29
(UTC+00:00)

Vanguard 3 - Pass Details

Date: 24 June 2019
Orbit: 508 x 3262 km, 33.3° (Epoch: 13 October)

Event Time Altitude Azimuth Distance (km) Brightness Sun altitude
Rises 11:44:56 0° 240° (WSW) 6,332 11.8 64.3°
Reaches altitude 10° 11:50:23 10° 231° (SW) 4,860 11.4 64.4°
Maximum altitude 12:00:29 29° 179° (S) 2,617 10.8 64.5°
Drops below altitude 10° 12:06:59 10° 123° (ESE) 3,053 10.4 64.5°
Sets 12:09:34 0° 111° (ESE) 3,705 10.6 64.5°
